User: anonymous   Login
Location: ActonStarParty
(42.4766°N, 71.4538°W)
Time: 04:18:47
(UTC-04:00)
Language:

ITAMSAT 1 - Orbit

View from above orbital plane
View from above orbital plane
View from above satellite
View from above satellite

Ground track
Ground track

The orbit data is extracted from the following two-line orbital elements,

1 22826U 93061D   16273.43337272  .00000031  00000-0  29445-4 0  9991
2 22826  98.7661 230.4982 0009197  11.2488 348.8898 14.30295711200303
Epoch (UTC): 29 September 2016 10:24:03
Eccentricity: 0.0009197
inclination: 98.7661°
perigee height: 784 km
apogee height: 797 km
right ascension of ascending node: 230.4982°
argument of perigee: 11.2488°
revolutions per day: 14.30295711
mean anomaly at epoch: 348.8898°
orbit number at epoch: 20030

The dashed part of the orbit path shows where the satellite is in the earth's shadow,  

DLR